www.pogodaiklimat.ru

Погода и климат >> Архив погоды >> Эстония >> Нарва


АРХИВ ПОГОДЫ в Нарве

Время (UTC), дата Ветер
(напр.,м/с)
 
Видим.   Явления Облачность Т
(С)
Тd
(С)
f
(%)
Тe
(С)
Тes
(С)
Комфортность P
(гПа)
Po
(гПа)
Тmin
(С)
Tmax
(С)
R
(мм)
R24
(мм)
S
(см)
22 12.06 В 4 20 км н/о +11.4 +2.2 53 +9 +9 тепло 1025.2 1021.7
23 12.06 В 5 20 км н/о +11.8 +1.9 51 +10 +10 по сезону 1024.8 1021.3
00 13.06 В 6-9
{9}
20 км 1/1
[Ac cuf Ci]
+11.4 0.0 45 +9 +9 по сезону 1024.6 1021.2 0.0 +22.6
01 13.06 В 4 20 км н/о +10.5 +0.8 51 +8 +8 по сезону 1024.8 1021.3
02 13.06 В 5 20 км н/о +10.2 +0.8 52 +8 +8 по сезону 1024.6 1021.1
03 13.06 В 7-11
{11}
20 км 6/0
[Ac cuf Ci ing]
+11.4 +10.0 91 +9 +9 прохладно 1024.0 1020.5 +10.0 +17.9
04 13.06 В 6 20 км н/о +11.8 +2.4 52 +9 +9 по сезону 1023.9 1020.5
05 13.06 В 6 20 км н/о +13.9 +3.8 51 +12 +12 по сезону 1023.7 1020.2
06 13.06 В 6 20 км 1/0
[Ac cuf]
+15.8 +10.0 68 +15 +15 по сезону 1023.4 1020.0 +10.0 +15.8
07 13.06 ЮВ 6 20 км н/о +15.5 +5.6 52 +14 +14 по сезону 1024.2 1020.8
08 13.06 ЮВ 6 13 км н/о +13.0 +8.0 72 +11 +11 прохладно 1023.1 1019.7 2
09 13.06 ЮВ 10-14
{16}
20 км слаб. дождь 9/1 600 м
[As op Ci sp]
+13.3 +10.0 80 +10 +11 холодно 1020.6 1017.2 +10.0 +16.1 5
10 13.06 ЮВ 7 20 км н/о +15.6 +9.3 66 +14 +14 прохладно 1021.6 1018.2
11 13.06 ЮВ 7 20 км н/о +17.5 +9.7 60 +17 +17 по сезону 1021.7 1018.3
12 13.06 ЮВ 8 20 км 1/1
[Ac As]
+18.2 +10.0 59 +17 +17 по сезону 1021.6 1018.2
13 13.06 ЮВ 7 20 км н/о +18.7 +9.6 55 +19 +19 тепло 1021.0 1017.6
14 13.06 В 7 20 км н/о +19.3 +9.9 54 +20 +20 тепло 1019.8 1016.5
15 13.06 ЮВ 8-13
{13}
20 км 1/0 2000 м
[Ac und Cs]
+19.6 +11.2 58 +20 +21 тепло 1019.2 1015.9 +11.2 +20.0
16 13.06 ЮВ 8 20 км н/о +18.7 +9.6 55 +18 +18 тепло 1018.4 1015.1
17 13.06 ЮВ 6 20 км н/о +18.7 +9.8 56 +19 +19 тепло 1018.4 1015.0
18 13.06 З 2 20 км 5/1 1000 м
[Ac lent]
+17.8 +12.6 72 +18 +18 тепло 1019.6 1016.3 +12.6 +20.0
19 13.06 В 5 20 км н/о +17.7 +9.8 60 +17 +17 тепло 1018.2 1014.9
20 13.06 ЮВ 6 20 км н/о +17.1 +9.4 60 +16 +16 тепло 1017.0 1013.6
21 13.06 ЮВ 5
{8}
20 км 10/10
[Ac cuf Ci sp]
+17.4 +13.3 77 +17 +17 тепло 1017.3 1014.0 +13.3 +20.0
22 13.06 Ю 3 20 км н/о +16.7 +9.7 63 +17 +17 тепло 1017.1 1013.8
23 13.06 ЮВ 5 20 км н/о +16.2 +10.6 69 +15 +15 тепло 1016.5 1013.1
00 14.06 Ю 2 20 км 8/8
[Ac cuf Ci sp]
+16.9 +16.1 95 +17 +17 тепло 1015.4 1012.1
01 14.06 ЮЗ 1 20 км н/о +15.7 +14.1 90 +16 +16 тепло 1014.9 1011.6
02 14.06 ЮВ 3 20 км н/о +15.7 +14.3 91 +15 +15 тепло 1014.8 1011.4
03 14.06 З 3 20 км {ливн. осадки} 9/1 1500 м
[Ac und Cs]
+17.5 +15.5 88 +18 +18 тепло 1015.1 1011.7 +15.5 +19.9
04 14.06 З 3 20 км н/о +17.9 +15.2 84 +18 +18 тепло 1015.4 1012.0
05 14.06 ЮЗ 2 20 км н/о +18.5 +15.2 81 +20 +20 тепло 1015.0 1011.7
06 14.06 ЮЗ 2 20 км 9/9 200 м
[Cs]
+19.3 +15.5 79 +22 +22 комфорт 1015.0 1011.7 +15.5 +19.3
07 14.06 С 2 14 км н/о +19.6 +15.6 78 +22 +22 комфорт 1015.0 1011.7
08 14.06 З 3 18 км н/о +19.7 +15.4 76 +22 +22 комфорт 1015.3 1012.0
09 14.06 З 2 20 км 5/5 300 м
[As trans Cs]
+21.7 +15.5 68 +25 +32 комфорт 1015.5 1012.2 +15.5 +22.0
10 14.06 З 4 20 км н/о +20.8 +14.9 69 +24 +24 комфорт 1016.0 1012.7
11 14.06 З 4 20 км н/о +20.2 +15.2 73 +23 +23 комфорт 1016.4 1013.1
12 14.06 З 4 16 км 8/4 600 м
[As op Ci fib]
+18.6 +15.5 82 +19 +19 тепло 1016.6 1013.3
13 14.06 З 4 15 км н/о +16.9 +14.0 83 +16 +16 по сезону 1016.7 1013.4
14 14.06 СЗ 4 11 км н/о +14.9 +12.8 87 +14 +14 по сезону 1016.9 1013.6
15 14.06 З 4 16 км 9/9 50 м
[Ci ing]
+15.5 +14.6 94 +15 +15 по сезону 1016.9 1013.5 +14.6 +22.2
16 14.06 СЗ 4 2800 м н/о +14.3 +13.0 92 +13 +13 по сезону 1016.9 1013.5
17 14.06 СЗ 3 13 км н/о +14.1 +12.9 92 +13 +13 по сезону 1016.7 1013.3
18 14.06 СЗ 2 13 км {ливн. осадки, морось} 10/10 50 м
[Ci ing]
+13.7 +13.7 100 +13 +13 по сезону 1017.0 1013.6 +13.7 +22.2
19 14.06 СЗ 1 6000 м н/о +13.2 +12.2 94 +13 +13 тепло 1016.9 1013.5
20 14.06 СЗ 1 1900 м н/о +13.2 +12.2 94 +13 +13 по сезону 1017.1 1013.7 0.1
21 14.06 ЮЗ 1 1500 м морось {дымка} 10/10 <50 м
[Ci fib]
+13.2 +13.2 100 +13 +13 по сезону 1017.2 1013.8 +13.2 +22.2 0.4
22 14.06 З 2 2400 м н/о +13.5 +12.5 94 +13 +13 тепло 1017.0 1013.6 0.1
23 14.06 З 3 4300 м н/о +13.9 +12.9 94 +13 +13 тепло 1016.6 1013.2 0.1
00 15.06 З 4 15 км в посл. час осадки {ливн. осадки} 9/9 100 м
[Ci]
+13.6 +13.2 97 +12 +12 по сезону 1016.3 1012.9 0.2
01 15.06 З 4 7000 м н/о +13.3 +12.1 92 +12 +12 тепло 1016.1 1012.7
02 15.06 З 5 8000 м н/о +13.0 +11.5 91 +11 +11 по сезону 1016.4 1013.0
03 15.06 З 7-11
{13}
20 км {дымка} 10/10 100 м
[Cs]
+12.3 +12.3 100 +9 +9 прохладно 1016.6 1013.2 +12.3 +15.5
04 15.06 З 6 9000 м н/о +12.0 +10.8 92 +9 +9 прохладно 1016.8 1013.3
05 15.06 З 5 5000 м н/о +12.1 +10.9 92 +10 +10 прохладно 1016.8 1013.4
06 15.06 З 6 20 км {ливн. осадки} 10/10 100 м
[Ci]
+12.7 +12.0 96 +10 +10 прохладно 1016.9 1013.5 +12.0 +14.0
07 15.06 З 6 20 км н/о +14.1 +10.0 76 +12 +12 по сезону 1016.7 1013.3
08 15.06 З 7 20 км н/о +14.7 +9.8 72 +13 +13 по сезону 1016.9 1013.5
09 15.06 З 6-11
{12}
20 км 9/9 300 м
[As trans Ci sp]
+15.6 +12.0 79 +14 +15 по сезону 1017.1 1013.7 +12.0 +16.3
10 15.06 З 5 20 км н/о +15.9 +10.2 69 +15 +15 по сезону 1017.3 1013.9
11 15.06 СЗ 5 20 км н/о +16.7 +10.1 65 +16 +16 по сезону 1017.2 1013.8
12 15.06 СЗ 5 20 км ясно +16.9 +12.0 73 +16 +16 по сезону 1017.2 1013.8
13 15.06 СЗ 5 20 км н/о +17.5 +10.4 63 +17 +17 тепло 1017.0 1013.7
14 15.06 СЗ 3 20 км н/о +18.5 +10.3 59 +19 +19 тепло 1016.3 1013.0
15 15.06 СЗ 4
{9}
20 км ясно +18.0 +12.0 68 +18 +21 тепло 1016.4 1013.1 +12.0 +18.9
16 15.06 СЗ 4 20 км н/о +16.6 +9.9 65 +16 +16 тепло 1016.6 1013.2
17 15.06 СЗ 3 20 км н/о +16.1 +10.0 67 +16 +16 тепло 1016.5 1013.2
18 15.06 СЗ 2 20 км ясно +15.4 +12.7 84 +15 +15 по сезону 1016.3 1012.9 +12.7 +18.9
19 15.06 СЗ 2 20 км н/о +14.0 +10.0 77 +14 +14 тепло 1016.4 1013.0
20 15.06 З 2 8000 м н/о +10.9 +9.3 90 +10 +10 по сезону 1016.6 1013.2
21 15.06 ЮЗ 1 300 м туман {дымка} ясно +9.7 +9.7 100 +9 +9 прохладно 1016.5 1013.0 +9.7 +18.9
22 15.06 З 1 200 м н/о +8.8 +7.6 92 +8 +8 по сезону 1016.2 1012.8
23 15.06 С 1 200 м н/о +9.1 +7.7 91 +8 +8 по сезону 1016.2 1012.7
00 16.06 ЮЗ 2 100 м туман н/о +8.6 +7.6 93 +7 +7 прохладно 1016.4 1012.9
01 16.06 ЮЗ 1 100 м н/о +9.0 +7.5 90 +8 +8 по сезону 1016.5 1013.0
02 16.06 ЮЗ 1 100 м н/о +7.8 +6.2 90 +7 +7 прохладно 1016.3 1012.8
03 16.06 ЮВ 1 2100 м в посл. час туман ясно +10.5 +7.6 82 +10 +11 по сезону 1016.1 1012.6 +7.6 +18.1
04 16.06 СЗ 1 6000 м н/о +14.2 +13.0 92 +14 +14 тепло 1016.2 1012.8
05 16.06 С 1 20 км н/о +16.8 +11.8 72 +18 +18 тепло 1016.3 1012.9
06 16.06 ЮЗ 2 20 км {дымка} 1/1 300 м
[As trans Ci]
+18.2 +7.6 50 +19 +19 тепло 1016.1 1012.7 +7.6 +18.2
07 16.06 ЮЗ 2 20 км н/о +19.9 +12.9 64 +22 +22 комфорт 1016.0 1012.6
08 16.06 С 2 20 км н/о +20.8 +11.6 56 +24 +24 комфорт 1015.7 1012.4
09 16.06 СЗ 3 20 км ясно +21.5 +7.6 41 +24 +35 комфорт 1015.6 1012.3 +7.6 +22.2
10 16.06 СЗ 3 20 км н/о +21.8 +11.3 51 +24 +24 комфорт 1015.2 1011.9
11 16.06 С 4 20 км н/о +22.1 +11.3 50 +24 +24 комфорт 1015.0 1011.7
12 16.06 СЗ 4 20 км ясно +21.4 +7.6 41 +23 +23 комфорт 1015.1 1011.8
13 16.06 СЗ 4 20 км н/о +21.2 +10.6 51 +23 +23 комфорт 1015.1 1011.8
14 16.06 СЗ 3 20 км н/о +21.6 +10.0 48 +23 +23 комфорт 1014.7 1011.4
15 16.06 СЗ 3 20 км ясно +20.8 +10.5 52 +23 +27 комфорт 1014.7 1011.4 +10.5 +22.6
16 16.06 С 3 20 км н/о +20.8 +9.2 47 +23 +23 комфорт 1014.3 1011.0
17 16.06 СЗ 2 20 км н/о +20.4 +9.2 49 +22 +22 комфорт 1014.2 1010.9
18 16.06 З 2 20 км ясно +18.5 +18.2 98 +19 +19 тепло 1014.1 1010.8 +18.2 +22.6
19 16.06 Ю 2 20 км н/о +14.5 +10.0 74 +14 +14 тепло 1014.1 1010.7
20 16.06 Ю 1 20 км н/о +12.2 +9.7 85 +12 +12 по сезону 1013.9 1010.5
21 16.06 Ю 1 14 км 1/1
[Ac cuf Cc]
+11.3 +10.9 97 +11 +11 по сезону 1013.7 1010.2 +10.9 +22.6
22 16.06 ЮЗ 2 20 км н/о +11.3 +9.1 86 +10 +10 тепло 1013.6 1010.2
23 16.06 ЮЗ 3 20 км н/о +12.3 +8.7 79 +11 +11 по сезону 1013.5 1010.1
00 17.06 ЮЗ 3 20 км 1/1
[Ac cuf Cs]
+11.7 +9.8 88 +10 +10 по сезону 1013.4 1010.0
01 17.06 ЮЗ 2 20 км н/о +11.4 +8.2 81 +10 +10 по сезону 1013.2 1009.8
02 17.06 З 2 20 км н/о +13.4 +8.6 73 +13 +13 тепло 1013.3 1009.9
03 17.06 З 2 20 км ясно +15.3 +9.8 70 +15 +16 тепло 1013.5 1010.1 +9.8 +21.0
04 17.06 З 4 20 км н/о +17.3 +9.3 59 +17 +17 тепло 1013.3 1009.9
05 17.06 З 5 20 км н/о +18.0 +9.3 57 +18 +18 тепло 1013.3 1009.9
06 17.06 З 4 20 км ясно +18.7 +9.8 56 +19 +19 тепло 1013.4 1010.1 +9.8 +19.2
07 17.06 СЗ 3 20 км н/о +19.9 +10.6 55 +22 +22 комфорт 1013.4 1010.1
08 17.06 З 3 20 км н/о +21.2 +11.6 54 +23 +23 комфорт 1013.3 1010.0
09 17.06 СЗ 4 20 км ясно +21.3 +9.8 48 +23 +32 комфорт 1013.5 1010.2 +9.8 +22.0
10 17.06 СЗ 4 20 км н/о +22.8 +8.4 40 +24 +24 комфорт 1013.3 1010.0
11 17.06 СЗ 3 20 км н/о +24.3 +8.8 37 +25 +25 комфорт 1013.2 1009.9
12 17.06 СЗ 4 20 км 8/0 2000 м
[Ac und Cs]
+23.6 +11.4 46 +24 +24 комфорт 1013.1 1009.8
13 17.06 СЗ 4 20 км н/о +23.9 +9.9 41 +25 +25 комфорт 1012.9 1009.6
14 17.06 СЗ 3 20 км н/о +23.3 +8.6 39 +25 +25 комфорт 1012.9 1009.6
15 17.06 СЗ 3 20 км 6/0 2000 м
[Ac und Cs]
+21.2 +15.3 69 +22 +25 комфорт 1013.0 1009.7 +15.3 +24.8
16 17.06 СЗ 4
{9}
20 км н/о +20.2 +9.1 49 +22 +23 комфорт 1013.0 1009.7 +17.3 +24.8
17 17.06 З 4 20 км н/о +18.1 +11.1 64 +18 +18 тепло 1012.9 1009.6
18 17.06 З 5 20 км ясно +17.3 +17.1 99 +17 +17 тепло 1012.9 1009.5 +17.1 +24.8
19 17.06 З 4 20 км н/о +16.2 +10.4 68 +16 +16 тепло 1012.9 1009.6
20 17.06 З 3 20 км н/о +15.0 +9.6 70 +14 +14 тепло 1013.4 1010.0
21 17.06 З 4
{10}
20 км ясно +15.2 +14.7 97 +14 +14 по сезону 1013.7 1010.3 +14.7 +24.8
22 17.06 З 4 20 км н/о +14.6 +5.5 54 +14 +14 тепло 1013.8 1010.4
23 17.06 З 4 20 км н/о +14.0 +5.1 55 +13 +13 тепло 1013.7 1010.4
00 18.06 ЮЗ 3 20 км 1/0
[Ac cuf Ci fib]
+12.3 +12.1 99 +11 +11 по сезону 1013.8 1010.4
01 18.06 ЮЗ 3 20 км н/о +11.3 +4.8 64 +10 +10 по сезону 1014.0 1010.6
02 18.06 ЮЗ 3 20 км н/о +11.6 +5.7 67 +10 +10 по сезону 1014.1 1010.7
03 18.06 ЮЗ 3 20 км ясно +13.3 +10.6 84 +12 +13 по сезону 1014.0 1010.6 +10.6 +21.7
04 18.06 З 4 20 км н/о +15.6 +8.1 61 +15 +15 тепло 1014.3 1010.9
05 18.06 З 3 20 км н/о +18.3 +9.3 56 +19 +19 тепло 1014.4 1011.0
06 18.06 З 4 20 км ясно +20.3 +10.6 54 +22 +22 комфорт 1014.3 1011.0 +10.6 +20.3
07 18.06 З 5 20 км н/о +22.3 +8.7 42 +24 +24 комфорт 1014.4 1011.1
08 18.06 З 6 20 км н/о +21.7 +8.4 42 +23 +23 комфорт 1014.7 1011.4
09 18.06 З 7-11
{11}
20 км 1/1 1500 м
[Ac und Cs]
+23.9 +10.6 43 +24 +28 комфорт 1014.8 1011.5 +10.6 +24.1
10 18.06 З 8 20 км н/о +23.5 +8.5 38 +24 +24 комфорт 1015.2 1011.9
11 18.06 З 7 20 км н/о +22.9 +7.9 38 +24 +24 комфорт 1015.5 1012.2
12 18.06 СЗ 6 20 км ясно +21.7 +10.6 49 +23 +23 комфорт 1015.8 1012.5
13 18.06 СЗ 5 20 км н/о +21.2 +8.8 45 +22 +22 комфорт 1015.9 1012.5
14 18.06 СЗ 5 20 км н/о +21.3 +8.9 45 +23 +23 комфорт 1015.7 1012.4
15 18.06 З 5-9
{11}
20 км ясно +19.9 +13.3 66 +21 +24 комфорт 1015.7 1012.4 +13.3 +24.1
16 18.06 СЗ 4 20 км н/о +18.5 +9.7 57 +19 +19 тепло 1015.8 1012.4
17 18.06 СЗ 4 20 км н/о +17.3 +9.8 61 +17 +17 тепло 1015.6 1012.2
18 18.06 СЗ 3 20 км ясно +16.6 +16.6 100 +16 +16 по сезону 1015.5 1012.1 +16.6 +24.1
19 18.06 З 2 20 км н/о +14.8 +9.9 72 +15 +15 тепло 1015.7 1012.3
20 18.06 З 3 20 км н/о +14.1 +10.2 77 +13 +13 по сезону 1016.0 1012.6
21 18.06 З 3 20 км 4/4
[Ac As Ci ing]
+13.0 +12.1 94 +12 +12 по сезону 1016.1 1012.7 +12.1 +24.1
22 18.06 З 3 20 км н/о +12.0 +7.1 72 +10 +10 тепло 1016.3 1012.9
23 18.06 З 3 20 км н/о +11.9 +7.5 74 +10 +10 по сезону 1016.4 1013.0
00 19.06 ЮЗ 2 20 км ясно +10.5 +10.1 97 +9 +9 по сезону 1016.8 1013.4 +10.1 +21.8
01 19.06 ЮЗ 2 13 км н/о +9.3 +7.8 90 +8 +8 по сезону 1017.0 1013.5
02 19.06 ЮЗ 1 13 км н/о +10.2 +9.0 92 +10 +10 по сезону 1017.1 1013.6
03 19.06 ЮЗ 2 20 км ясно +12.5 +9.2 80 +12 +13 по сезону 1017.0 1013.6 +9.2 +20.0
04 19.06 ЮЗ 3 20 км н/о +15.4 +10.0 70 +15 +15 тепло 1017.0 1013.6
05 19.06 З 3 20 км н/о +18.0 +9.7 58 +18 +18 тепло 1017.1 1013.7
06 19.06 ЮЗ 3 20 км ясно +19.7 +9.2 51 +21 +21 комфорт 1017.1 1013.8 +9.2 +19.7
07 19.06 ЮЗ 2 20 км н/о +21.0 +9.7 48 +23 +23 комфорт 1016.9 1013.6
08 19.06 Ю 2 20 км н/о +22.2 +10.2 46 +24 +24 комфорт 1016.9 1013.6
09 19.06 ЮЗ 2 20 км ясно +23.4 +9.2 40 +25 +39 комфорт 1016.5 1013.3 +9.2 +23.5
10 19.06 Ю 4 20 км н/о +24.1 +11.8 46 +26 +26 жарко 1016.2 1013.0
11 19.06 Ю 3 20 км н/о +23.9 +11.9 47 +26 +26 жарко 1016.1 1012.8
12 19.06 Ю 4 20 км 1/1
[Ac cuf Cs]
+24.6 +9.2 38 +26 +26 жарко 1015.9 1012.7
13 19.06 Ю 5 20 км н/о +24.9 +12.3 45 +27 +27 жарко 1015.7 1012.4
14 19.06 ЮЗ 5 20 км н/о +24.6 +12.0 45 +26 +26 жарко 1015.2 1011.9
15 19.06 ЮЗ 5
{8}
20 км ясно +24.5 +12.5 47 +26 +29 жарко 1014.7 1011.4 +12.5 +25.3
16 19.06 ЮЗ 4 20 км н/о +24.5 +12.0 46 +26 +26 жарко 1014.3 1011.1
17 19.06 ЮЗ 3 20 км н/о +23.5 +12.7 51 +26 +26 жарко 1014.1 1010.8
18 19.06 З 2 20 км ясно +22.0 +19.6 86 +25 +25 комфорт 1014.2 1010.9 +19.6 +25.3
19 19.06 СЗ 2 20 км н/о +18.8 +11.9 64 +20 +20 тепло 1014.5 1011.2
20 19.06 СЗ 1 20 км н/о +15.6 +10.5 72 +16 +16 тепло 1014.5 1011.1

 

Местоположение метеостанции Нарва (Эстония): широта 59.37 долгота 28.12 высота над уровнем моря 30 м.

В архиве по умолчанию представлена погода в Нарве за последнюю неделю. Архивные данные за месяц целиком и за предыдущие месяцы, начиная с января 2011 года, Вы можете получить, выбрав интересующий диапазон дат из раскрывающегося списка и нажав кнопку "Ввод!".


*Определитесь, кто Вы:
робот инопланетянин человек

Внимание! Время в таблицах - всемирное. Для получения местного времени необходимо прибавить поправку, которая равна 2 ч.

Смотрите также архив погоды в соседних городах и на ближайших метеорологических станциях:

Погода в Кингисеппе (Ленинградская область, Россия) (27 км)
Погода в Сланцах (Ленинградская область, Россия) (28 км)
Погода в Йохви (Эстония) (42 км)
Погода в Гдове (Псковская область, Россия) (73 км)
Погода в Сосновом Бору (Ленинградская область, Россия) (77 км)
Погода в Волосово (Ленинградская область, Россия) (78 км)
Погода в Шепелево (Ленинградская область, Россия) (84 км)
Погода в Тиирикое (Эстония) (87 км)
Погода в Кунде (Эстония) (91 км)
Погода в Гогланде (Ленинградская область, Россия) (102 км)

Пояснения к столбцам:

Ветер - указаны скорость ветра в м/с - средняя за 10 мин, порывы в срок и между сроками (в фигурных скобках) и направление, откуда дует ветер: С - северный, СВ - северо-восточный, В - восточный, ЮВ - юго-восточный, Ю - южный, ЮЗ - юго-западный, З - западный, СЗ - северо-западный.
Видимость - горизонтальная дальность видимости в метрах или километрах. При видимости от 1 до 10 км при отсутствии осадков обычно наблюдается дымка, при ухудшении видимости до 1 км и менее - туман. В сухую погоду видимость может ухудшаться дымом, пылью или мглою.
Явления - указаны атмосферные явления, наблюдавшиеся в срок или в последний час перед сроком; фигурными скобками обозначены явления, наблюдавшиеся между сроками (за 1-3 часа до срока); квадратными скобками обозначены град или гололедные отложения с указанием их диаметра в мм.
Облачность - указаны через наклонную черту общая и нижняя облачность в баллах и высота нижней границы облаков в метрах; квадратными скобками обозначены формы облаков: Ci - перистые, Cs - перисто-слоистые, Cc - перисто-кучевые, Ac - высококучевые, As - высокослоистые, Sc - слоисто-кучевые, Ns - слоисто-дождевые, Cu - кучевые, Cb - кучево-дождевые. Подробнее классификацию облаков см. в Атласе облаков (PDF).
T - Температура воздуха - температура, измеренная на высоте 2 м над землей.
Td - Температура точки росы - температура, при понижении до которой содержащийся в воздухе водяной пар достигнет насыщения.
f - Относительная влажность воздуха - влажноcть воздуха, измеренная на высоте 2 м над землей.
Te - Эффективная температура - температура, которую ощущает одетый по сезону человек в тени. Характеристика душности погоды. При расчете учитывается влияние влажности воздуха и скорости ветра на теплоощущения человека.
Tes - Эффективная температура на солнце - температура, которую ощущает человек, с поправкой на солнечный нагрев. Характеристика знойности погоды. Зависит от высоты солнца над горизонтом, облачности и скорости ветра. Ночью, в пасмурную погоду, а также при ветре 12 м/с и более поправка равна нулю.
P - Атмосферное давление - приведенное к уровню моря атмосферное давление.
Po - Атмосферное давление - измеренное на уровне метеостанции атмосферное давление.
Tmin - Минимальная температура - минимум температуры воздуха на высоте 2 м над землей.
Tmax - Максимальная температура - максимум температуры воздуха на высоте 2 м над землей.
R - Количество осадков - Количество выпавших осадков за период времени, мм. При наведении курсора мыши на число - период времени, за который выпало указанное количество осадков.
R24 - Количество осадков - Количество выпавших осадков за 24 часа, мм.
S - Снежный покров - Высота снежного покрова, см. При наведении курсора мыши на число - состояние снежного покрова и степень покрытия местности в баллах.